Location: Unspecified
(37.6100°N, 2.7800°W)
Time: 19:41:03
(UTC+00:00)

Amateur Radio Satellites - All Passes

Search period start: 18 November 2017 19:11
Search period end: 19 November 2017 19:11
Location: Unspecified, 37.6100°N, 2.7800°W

Satellite Date Start Highest point End Downlink Frequencies (MHz)
Time Altitude Azimuth
CUBEBUG 2 18 Nov 19:11:12 19:15:46 56° 260° (W) 19:20:15 437.445
CUTE-I 18 Nov 19:16:22 19:18:45 13° 269° (W) 19:21:08 437.470
FO-29 18 Nov 19:25:10 19:30:27 19° 89° (E) 19:35:32 435.910
SEEDS 18 Nov 19:26:04 19:29:50 33° 263° (W) 19:33:37 437.485
AO-73 18 Nov 19:29:32 19:33:49 58° 75° (ENE) 19:38:00 145.935
AAUSAT CUBESAT 2 18 Nov 19:42:19 19:46:19 51° 261° (W) 19:50:22 437.432
Oscar 11 18 Nov 19:49:35 19:53:50 65° 75° (ENE) 19:58:06 .
STRAND 1 18 Nov 20:10:28 20:15:27 53° 288° (WNW) 20:20:24 437.568
ZACube-1 18 Nov 20:12:53 20:16:58 37° 262° (W) 20:20:59 437.345
UWE-3 18 Nov 20:16:23 20:19:37 19° 266° (W) 20:22:49 435.000/436.395/437.385
SRMSAT 18 Nov 20:18:21 20:21:04 13° 177° (S) 20:23:49 437.500
RS-15 18 Nov 20:30:08 20:42:06 54° 309° (NW) 20:54:03 29.354- 29.394
nSIGHT-1 18 Nov 20:32:26 20:34:12 14° 129° (SE) 20:35:58 .
DELFI C3 18 Nov 20:42:34 20:46:22 49° 74° (ENE) 20:50:13 145.870
Max Valier Satellite 18 Nov 20:53:37 20:57:06 43° 74° (ENE) 21:00:36 145.860
EO-88 18 Nov 20:59:29 21:02:47 35° 73° (ENE) 21:06:07 145.990 - 145.960
ISS 18 Nov 21:05:17 21:08:02 25° 132° (SE) 21:10:49 437.550
FO-29 18 Nov 21:08:16 21:16:10 79° 286° (WNW) 21:23:37 435.910
AO-73 18 Nov 21:09:23 21:10:19 11° 269° (W) 21:11:16 145.935
SO-50 18 Nov 21:26:49 21:29:59 19° 110° (ESE) 21:33:09 436.795
LO-87 18 Nov 21:36:04 21:37:24 12° 67° (ENE) 21:38:43 145.935 - 145.965
UNISAT 6 18 Nov 21:38:48 21:42:53 43° 99° (E) 21:46:56 437.425
TIGRISAT 18 Nov 21:44:01 21:48:08 45° 99° (E) 21:52:10 435.000
PRISM 18 Nov 21:59:53 22:03:17 24° 96° (E) 22:06:39 437.425
nSIGHT-1 18 Nov 22:07:00 22:10:07 49° 323° (NW) 22:13:16 .
SRMSAT 18 Nov 22:07:16 22:09:23 12° 188° (S) 22:11:31 437.500
ESTCUBE 1 18 Nov 22:09:56 22:13:40 27° 69° (ENE) 22:17:25 437.505/2401.250
NO-84 18 Nov 22:16:39 22:19:59 22° 32° (NNE) 22:23:17 435.350 FM
DELFI C3 18 Nov 22:20:38 22:21:22 10° 269° (W) 22:22:06 145.870
SPROUT 18 Nov 22:32:19 22:32:36 10° 63° (ENE) 22:32:51 437.525
EO-88 18 Nov 22:35:08 22:36:33 12° 268° (W) 22:37:58 145.990 - 145.960
ISS 18 Nov 22:41:31 22:44:27 30° 328° (NNW) 22:47:23 437.550
VELOX 1 18 Nov 22:47:27 22:47:55 10° 62° (ENE) 22:48:23 145.980
RS-15 18 Nov 22:49:47 22:58:21 21° 339° (NNW) 23:06:48 29.354- 29.394
FO-29 18 Nov 22:55:31 22:59:52 16° 304° (NW) 23:04:10 435.910
SO-50 18 Nov 23:05:55 23:10:07 40° 306° (NW) 23:14:22 436.795
LO-87 18 Nov 23:07:01 23:10:24 38° 261° (W) 23:13:48 145.935 - 145.965
UNISAT 6 18 Nov 23:16:49 23:19:12 15° 294° (WNW) 23:21:34 437.425
TIGRISAT 18 Nov 23:22:08 23:24:23 14° 295° (WNW) 23:26:38 435.000
PCSat 18 Nov 23:31:51 23:34:51 15° 104° (ESE) 23:37:52 145.827
O/OREOS (USA 219) 18 Nov 23:32:41 23:37:00 41° 65° (ENE) 23:41:15 437.305
PRISM 18 Nov 23:35:02 23:38:26 24° 291° (WNW) 23:41:47 437.425
DUCHIFAT 1 18 Nov 23:36:54 23:40:17 24° 96° (E) 23:43:38 145.980
EO-79 18 Nov 23:40:04 23:43:54 34° 98° (E) 23:47:43 145.935-145.965
NANOSAT C BR1 18 Nov 23:45:22 23:49:11 35° 98° (E) 23:53:00 145.865
nSIGHT-1 18 Nov 23:46:02 23:46:58 11° 342° (NNW) 23:47:56 .
ESTCUBE 1 18 Nov 23:46:42 23:50:23 25° 264° (W) 23:54:05 437.505/2401.250
AIST 2D 18 Nov 23:51:23 23:54:41 39° 286° (WNW) 23:57:58 435.315
NO-84 18 Nov 23:53:27 23:57:41 64° 228° (SW) 00:01:48 435.350 FM
POLYITAN 1 18 Nov 23:54:19 23:58:25 51° 100° (E) 00:02:29 437.675
SPROUT 19 Nov 00:03:36 00:07:52 68° 259° (W) 00:12:09 437.525
50 SAT 19 Nov 00:14:17 00:16:28 17° 70° (ENE) 00:18:40 437.505
QB50P2 19 Nov 00:17:20 00:21:32 73° 284° (WNW) 00:25:42 145.880/145.840
VELOX 1 19 Nov 00:19:17 00:23:42 73° 258° (WSW) 00:28:09 145.980
UKube-1 19 Nov 00:28:07 00:31:06 19° 67° (ENE) 00:34:06 .
BUGSAT 1 19 Nov 00:41:05 00:44:38 29° 97° (E) 00:48:09 437.445
RS-15 19 Nov 01:09:32 01:17:31 19° 17° (NNE) 01:25:14 29.354- 29.394
PCSat 19 Nov 01:12:16 01:17:38 65° 299° (WNW) 01:23:02 145.827
DUCHIFAT 1 19 Nov 01:12:27 01:15:50 24° 290° (WNW) 01:19:11 145.980
O/OREOS (USA 219) 19 Nov 01:13:09 01:16:00 17° 261° (W) 01:18:49 437.305
DX 1 19 Nov 01:14:07 01:18:28 80° 256° (WSW) 01:22:52 434.975-435.025
Oscar 19 19 Nov 01:14:10 01:18:58 38° 98° (E) 01:23:45 437.125/150
Gurwin Techsat 1B 19 Nov 01:16:21 01:20:55 28° 96° (E) 01:25:27 435.225
EO-79 19 Nov 01:16:34 01:19:22 18° 293° (WNW) 01:22:09 145.935-145.965
NANOSAT C BR1 19 Nov 01:21:51 01:24:36 17° 293° (WNW) 01:27:21 145.865
POLYITAN 1 19 Nov 01:31:59 01:33:43 12° 295° (WNW) 01:35:26 437.675
50 SAT 19 Nov 01:46:01 01:48:25 19° 264° (W) 01:50:51 437.505
BEESAT 19 Nov 01:51:49 01:55:27 22° 67° (ENE) 01:59:06 436.000
ITUPSAT 1 19 Nov 01:59:13 02:03:07 26° 68° (ENE) 02:07:02 437.325
UKube-1 19 Nov 02:02:53 02:06:50 35° 262° (W) 02:10:49 .
M-CUBED/EXP-1 PRIME 19 Nov 02:15:03 02:18:55 27° 101° (E) 02:22:49 437.505
BUGSAT 1 19 Nov 02:16:55 02:19:45 19° 292° (WNW) 02:22:34 437.445
BEESAT 3 19 Nov 02:22:09 02:24:48 17° 110° (ESE) 02:27:29 437.485
MOZHAYETS 4 19 Nov 02:38:06 02:42:39 84° 78° (ENE) 02:47:15
CUBESAT XI-V 19 Nov 02:43:23 02:46:45 21° 67° (ENE) 02:50:08 437.345
Oscar 19 19 Nov 02:53:59 02:58:02 24° 294° (WNW) 03:02:05 437.125/150
Gurwin Techsat 1B 19 Nov 02:56:06 03:00:48 33° 291° (WNW) 03:05:30 435.225
nSIGHT-1 19 Nov 03:00:09 03:01:56 14° 23° (NNE) 03:03:43 .
ITAMSAT 1 19 Nov 03:01:01 03:05:00 22° 95° (E) 03:08:58 435.822/435.867
PCSat 19 Nov 03:01:05 03:02:05 10° 319° (NW) 03:03:06 145.827
KKS-1 19 Nov 03:17:35 03:18:39 11° 62° (ENE) 03:19:44 437.445
RS-15 19 Nov 03:22:41 03:34:06 48° 48° (NE) 03:44:52 29.354- 29.394
BEESAT 2 19 Nov 03:26:01 03:29:17 25° 112° (ESE) 03:32:35 435.950
BEESAT 19 Nov 03:28:36 03:32:58 36° 262° (W) 03:37:22 436.000
AO-7 19 Nov 03:30:59 03:39:14 60° 104° (ESE) 03:47:27 .
ISS 19 Nov 03:34:37 03:37:08 20° 28° (NNE) 03:39:38 437.550
ITUPSAT 1 19 Nov 03:36:34 03:40:47 30° 263° (W) 03:45:01 437.325
M-CUBED/EXP-1 PRIME 19 Nov 03:49:16 03:53:10 29° 294° (WNW) 03:57:09 437.505
BEESAT 3 19 Nov 03:58:22 04:02:03 35° 306° (NW) 04:05:46 437.485
CUBESAT XI-V 19 Nov 04:19:40 04:23:51 35° 262° (W) 04:28:04 437.345
AO-85 19 Nov 04:23:22 04:26:58 39° 115° (ESE) 04:30:42 145.980
nSIGHT-1 19 Nov 04:35:23 04:38:34 86° 36° (NE) 04:41:45 .
ITAMSAT 1 19 Nov 04:39:43 04:44:35 41° 290° (WNW) 04:49:23 435.822/435.867
DOVE 4 19 Nov 04:46:38 04:51:36 43° 97° (E) 04:56:19 437.250
KKS-1 19 Nov 04:50:07 04:54:34 70° 258° (WSW) 04:59:04 437.445
BEESAT 2 19 Nov 05:03:28 05:06:54 26° 308° (NW) 05:10:21 435.950
ISS 19 Nov 05:10:37 05:13:46 48° 225° (SW) 05:16:55 437.550
YUBILEINY 19 Nov 05:15:20 05:23:28 46° 88° (E) 05:31:40 435.215
XW-2D 19 Nov 05:17:21 05:19:24 14° 93° (E) 05:21:26 145.860 - 145.880
STARS 19 Nov 05:22:10 05:26:35 80° 257° (WSW) 05:31:03 437.465
AO-7 19 Nov 05:24:32 05:31:27 30° 301° (WNW) 05:38:21 .
XW-2B 19 Nov 05:31:21 05:34:13 20° 95° (E) 05:37:05 145.730 - 145.750
RS-15 19 Nov 05:35:31 05:46:32 50° 251° (WSW) 05:57:02 29.354- 29.394
STRAND 1 19 Nov 05:46:48 05:50:30 20° 65° (ENE) 05:54:12 437.568
CUTE-I 19 Nov 05:52:16 05:57:03 32° 97° (E) 06:01:48 437.470
LilacSat-2 19 Nov 05:54:40 05:58:21 44° 99° (E) 06:02:02 437.200
XW-2C 19 Nov 05:56:08 05:59:47 43° 99° (E) 06:03:24 145.795 - 145.815
NUDT-PHONESAT 19 Nov 05:57:52 06:01:09 29° 97° (E) 06:04:24 437.300
SO-50 19 Nov 05:59:34 06:01:58 14° 43° (NE) 06:04:23 436.795
AO-85 19 Nov 06:04:57 06:07:33 17° 313° (NW) 06:10:13 145.980
XW-2F 19 Nov 06:09:18 06:13:04 60° 100° (E) 06:16:49 145.980 - 146.000
HO-68 19 Nov 06:21:29 06:27:29 28° 95° (E) 06:33:25 435.675
DOVE 4 19 Nov 06:25:02 06:28:52 21° 294° (WNW) 06:32:36 437.250
CUTE 1.7 + AOD 2 19 Nov 06:35:37 06:39:19 28° 96° (E) 06:42:59 437.475
KAITUO 1B 19 Nov 06:41:56 06:45:40 64° 284° (WNW) 06:49:23 145.475/437.950
XW-2D 19 Nov 06:50:12 06:53:38 33° 287° (WNW) 06:57:05 145.860 - 145.880
CUBEBUG 2 19 Nov 07:04:11 07:07:56 32° 97° (E) 07:11:39 437.445
XW-2B 19 Nov 07:05:14 07:08:18 24° 289° (WNW) 07:11:22 145.730 - 145.750
SEEDS 19 Nov 07:11:04 07:15:07 43° 99° (E) 07:19:09 437.485
YUBILEINY 19 Nov 07:12:28 07:20:19 36° 287° (WNW) 07:28:18 435.215
FO-29 19 Nov 07:17:53 07:23:47 39° 66° (ENE) 07:30:23 435.910
AO-73 19 Nov 07:21:17 07:22:45 12° 92° (E) 07:24:14 145.935
STRAND 1 19 Nov 07:24:23 07:29:18 46° 260° (W) 07:34:16 437.568
AAUSAT CUBESAT 2 19 Nov 07:26:19 07:29:53 26° 96° (E) 07:33:25 437.432
LilacSat-2 19 Nov 07:30:50 07:32:12 12° 294° (WNW) 07:33:32 437.200
XW-2C 19 Nov 07:32:05 07:33:32 12° 293° (WNW) 07:34:58 145.795 - 145.815
CUTE-I 19 Nov 07:32:22 07:36:58 29° 292° (WNW) 07:41:31 437.470
NUDT-PHONESAT 19 Nov 07:32:26 07:34:43 16° 292° (WNW) 07:37:01 437.300
SO-50 19 Nov 07:38:18 07:42:58 80° 240° (WSW) 07:47:41 436.795
Oscar 11 19 Nov 07:40:09 07:42:23 14° 92° (E) 07:44:36 .
XW-2A 19 Nov 08:00:42 08:04:05 88° 277° (W) 08:07:26 145.665 - 145.685
ZACube-1 19 Nov 08:02:35 08:06:32 43° 99° (E) 08:10:30 437.345
UWE-3 19 Nov 08:06:16 08:10:25 82° 283° (WNW) 08:14:33 435.000/436.395/437.385
HO-68 19 Nov 08:08:31 08:15:24 51° 292° (WNW) 08:22:16 435.675
CUTE 1.7 + AOD 2 19 Nov 08:11:39 08:14:57 22° 291° (WNW) 08:18:16 437.475
PCSat 19 Nov 08:21:41 08:22:56 11° 41° (NE) 08:24:10 145.827
UNISAT 6 19 Nov 08:35:25 08:39:29 32° 71° (ENE) 08:43:30 437.425
TIGRISAT 19 Nov 08:40:27 08:44:33 33° 71° (ENE) 08:48:36 435.000
CUBEBUG 2 19 Nov 08:41:28 08:44:18 18° 292° (WNW) 08:47:07 437.445
SEEDS 19 Nov 08:48:01 08:50:24 15° 293° (WNW) 08:52:48 437.485
PRISM 19 Nov 08:48:16 08:50:25 14° 65° (ENE) 08:52:34 437.425
AO-73 19 Nov 08:55:15 08:59:13 48° 286° (WNW) 09:03:13 145.935
AAUSAT CUBESAT 2 19 Nov 09:01:55 09:05:10 22° 290° (WNW) 09:08:25 437.432
FO-29 19 Nov 09:03:06 09:08:48 35° 266° (W) 09:15:13 435.910
Oscar 11 19 Nov 09:14:35 09:18:43 45° 287° (WNW) 09:22:50 .
FALCONSAT 3 19 Nov 09:21:39 09:21:50 10° 149° (SSE) 09:22:01 435.103
ZACube-1 19 Nov 09:40:19 09:42:26 14° 294° (WNW) 09:44:34 437.345
DELFI C3 19 Nov 09:55:27 09:59:27 75° 284° (WNW) 10:03:25 145.870
Max Valier Satellite 19 Nov 09:58:31 10:02:11 83° 102° (ESE) 10:05:51 145.860
PCSat 19 Nov 10:01:57 10:07:22 66° 61° (ENE) 10:12:44 145.827
EO-88 19 Nov 10:02:47 10:06:24 62° 101° (E) 10:10:01 145.990 - 145.960
UNISAT 6 19 Nov 10:12:35 10:16:10 22° 265° (W) 10:19:43 437.425
TIGRISAT 19 Nov 10:17:43 10:21:14 21° 265° (W) 10:24:43 435.000
PRISM 19 Nov 10:21:21 10:25:16 43° 261° (W) 10:29:13 437.425
AIST 2D 19 Nov 10:23:07 10:26:25 45° 75° (ENE) 10:29:45 435.315
DUCHIFAT 1 19 Nov 10:27:38 10:29:59 15° 66° (ENE) 10:32:21 145.980
EO-79 19 Nov 10:30:52 10:34:04 21° 68° (ENE) 10:37:16 145.935-145.965
NANOSAT C BR1 19 Nov 10:35:49 10:39:00 21° 68° (ENE) 10:42:11 145.865
LO-87 19 Nov 10:36:13 10:38:33 16° 94° (E) 10:40:52 145.935 - 145.965
POLYITAN 1 19 Nov 10:44:53 10:48:35 30° 71° (ENE) 10:52:19 437.675
FALCONSAT 3 19 Nov 10:56:59 11:00:20 33° 162° (SSE) 11:03:42 435.103
QB50P2 19 Nov 11:07:25 11:11:37 63° 75° (ENE) 11:15:50 145.880/145.840
BUGSAT 1 19 Nov 11:29:20 11:32:09 18° 68° (ENE) 11:34:58 437.445
ESTCUBE 1 19 Nov 11:39:50 11:44:22 77° 101° (ESE) 11:48:54 437.505/2401.250
BEESAT 2 19 Nov 11:46:46 11:47:39 11° 43° (NE) 11:48:31 435.950
PCSat 19 Nov 11:47:13 11:50:07 15° 257° (WSW) 11:53:01 145.827
SPROUT 19 Nov 11:51:36 11:54:56 22° 95° (E) 11:58:15 437.525
DUCHIFAT 1 19 Nov 12:01:14 12:05:15 43° 261° (W) 12:09:17 145.980
EO-79 19 Nov 12:05:54 12:09:37 29° 263° (W) 12:13:21 145.935-145.965
LO-87 19 Nov 12:09:01 12:11:55 24° 289° (WNW) 12:14:47 145.935 - 145.965
NANOSAT C BR1 19 Nov 12:10:48 12:14:30 29° 263° (W) 12:18:13 145.865
VELOX 1 19 Nov 12:11:37 12:15:13 24° 96° (E) 12:18:48 145.980
BEESAT 3 19 Nov 12:16:15 12:20:10 67° 58° (ENE) 12:24:01 437.485
POLYITAN 1 19 Nov 12:21:12 12:24:22 20° 265° (W) 12:27:32 437.675
Oscar 19 19 Nov 12:29:04 12:33:55 46° 72° (ENE) 12:38:48 437.125/150
Gurwin Techsat 1B 19 Nov 12:35:25 12:40:17 38° 70° (ENE) 12:45:10 435.225
FALCONSAT 3 19 Nov 12:35:33 12:39:12 62° 177° (S) 12:42:51 435.103
AO-7 19 Nov 12:40:36 12:44:31 14° 49° (NE) 12:48:27 .
AO-85 19 Nov 12:55:21 12:59:18 26° 51° (NE) 13:03:27 145.980
M-CUBED/EXP-1 PRIME 19 Nov 12:59:52 13:02:22 18° 62° (ENE) 13:04:58 437.505
BUGSAT 1 19 Nov 13:03:21 13:07:13 35° 262° (W) 13:11:04 437.445
DX 1 19 Nov 13:04:55 13:08:08 20° 95° (E) 13:11:21 434.975-435.025
50 SAT 19 Nov 13:04:55 13:07:12 18° 96° (E) 13:09:28 437.505
BEESAT 2 19 Nov 13:21:53 13:25:56 82° 240° (WSW) 13:29:53 435.950
SPROUT 19 Nov 13:27:11 13:30:46 27° 290° (WNW) 13:34:20 437.525
O/OREOS (USA 219) 19 Nov 13:42:32 13:47:06 71° 109° (ESE) 13:51:42 437.305
VELOX 1 19 Nov 13:47:48 13:51:35 28° 291° (WNW) 13:55:22 145.980
UKube-1 19 Nov 13:51:16 13:55:22 40° 99° (E) 13:59:25 .
Oscar 19 19 Nov 14:09:55 14:13:27 19° 267° (W) 14:16:59 437.125/150
FALCONSAT 3 19 Nov 14:14:34 14:18:08 46° 192° (SSW) 14:21:41 435.103
Gurwin Techsat 1B 19 Nov 14:16:02 14:20:17 24° 265° (W) 14:24:34 435.225
ITAMSAT 1 19 Nov 14:16:57 14:21:23 29° 67° (ENE) 14:25:50 435.822/435.867
AO-7 19 Nov 14:27:35 14:35:46 69° 68° (ENE) 14:44:00 .
M-CUBED/EXP-1 PRIME 19 Nov 14:33:46 14:36:35 24° 260° (W) 14:39:36 437.505
AO-85 19 Nov 14:35:20 14:39:46 38° 246° (WSW) 14:44:30 145.980
MOZHAYETS 4 19 Nov 14:35:35 14:39:07 22° 95° (E) 14:42:40
50 SAT 19 Nov 14:36:55 14:39:11 18° 290° (WNW) 14:41:27 437.505
DX 1 19 Nov 14:40:25 14:44:21 32° 290° (WNW) 14:48:13 434.975-435.025
NO-84 19 Nov 15:06:36 15:09:54 35° 127° (SE) 15:13:29 435.350 FM
O/OREOS (USA 219) 19 Nov 15:25:17 15:27:01 12° 306° (NW) 15:28:46 437.305
UKube-1 19 Nov 15:28:19 15:31:01 16° 294° (WNW) 15:33:43 .
YUBILEINY 19 Nov 15:28:42 15:34:49 20° 66° (ENE) 15:40:52 435.215
BEESAT 19 Nov 15:29:58 15:34:42 65° 102° (ESE) 15:39:24 436.000
ITUPSAT 1 19 Nov 15:38:05 15:42:52 77° 103° (ESE) 15:47:37 437.325
DOVE 4 19 Nov 15:49:30 15:53:58 35° 70° (ENE) 15:58:38 437.250
FALCONSAT 3 19 Nov 15:54:20 15:56:47 17° 207° (SSW) 15:59:14 435.103
ITAMSAT 1 19 Nov 15:56:05 16:00:43 32° 263° (W) 16:05:22 435.822/435.867
MOZHAYETS 4 19 Nov 16:12:15 16:16:16 31° 290° (WNW) 16:20:18
CUBESAT XI-V 19 Nov 16:17:19 16:21:59 64° 101° (E) 16:26:38 437.345
AO-7 19 Nov 16:22:49 16:29:05 24° 265° (W) 16:35:23 .
LilacSat-2 19 Nov 16:35:32 16:38:00 17° 69° (ENE) 16:40:28 437.200
XW-2C 19 Nov 16:36:27 16:38:47 16° 68° (ENE) 16:41:07 145.795 - 145.815
JUGNU 19 Nov 16:37:03 16:39:24 12° 176° (S) 16:41:46 437.505
NUDT-PHONESAT 19 Nov 16:37:27 16:38:04 10° 66° (ENE) 16:38:39 437.300
KKS-1 19 Nov 16:43:23 16:47:04 25° 96° (E) 16:50:42 437.445
NO-84 19 Nov 16:44:04 16:47:18 26° 326° (NW) 16:50:45 435.350 FM
XW-2F 19 Nov 16:48:41 16:51:29 21° 70° (ENE) 16:54:18 145.980 - 146.000
HO-68 19 Nov 16:49:52 16:54:24 18° 57° (ENE) 16:58:56 435.675
BEESAT 19 Nov 17:09:48 17:11:52 13° 297° (WNW) 17:13:57 436.000
CUTE-I 19 Nov 17:12:00 17:17:03 44° 71° (ENE) 17:22:08 437.470
STARS 19 Nov 17:14:05 17:17:24 21° 95° (E) 17:20:40 437.465
ITUPSAT 1 19 Nov 17:18:50 17:19:59 11° 299° (WNW) 17:21:08 437.325
KAITUO 1B 19 Nov 17:19:38 17:23:04 39° 74° (ENE) 17:26:31 145.475/437.950
YUBILEINY 19 Nov 17:23:45 17:32:37 81° 265° (W) 17:41:26 435.215
CUTE 1.7 + AOD 2 19 Nov 17:27:18 17:29:51 16° 67° (ENE) 17:32:25 437.475
DOVE 4 19 Nov 17:27:39 17:31:39 25° 267° (W) 17:35:51 437.250
XW-2D 19 Nov 17:28:40 17:32:24 81° 75° (ENE) 17:36:08 145.860 - 145.880
XW-2B 19 Nov 17:43:27 17:47:09 66° 259° (W) 17:50:53 145.730 - 145.750
RS-15 19 Nov 17:43:36 17:54:06 35° 104° (ESE) 18:04:36 29.354- 29.394
CUBESAT XI-V 19 Nov 17:56:47 17:58:47 13° 296° (WNW) 18:00:46 437.345
CUBEBUG 2 19 Nov 18:00:11 18:03:53 24° 70° (ENE) 18:07:31 437.445
SEEDS 19 Nov 18:01:08 18:04:25 23° 70° (ENE) 18:07:42 437.485
NUDT-PHONESAT 19 Nov 18:07:58 18:11:27 44° 261° (W) 18:14:58 437.300
LilacSat-2 19 Nov 18:08:48 18:12:02 27° 264° (W) 18:15:18 437.200
XW-2C 19 Nov 18:09:26 18:12:42 29° 263° (W) 18:16:00 145.795 - 145.815
AAUSAT CUBESAT 2 19 Nov 18:15:37 18:17:48 14° 66° (ENE) 18:19:59 437.432
KKS-1 19 Nov 18:19:46 18:23:31 27° 291° (WNW) 18:27:15 437.445
XW-2F 19 Nov 18:22:34 18:25:28 22° 265° (W) 18:28:23 145.980 - 146.000
JUGNU 19 Nov 18:25:24 18:27:31 12° 186° (S) 18:29:39 437.505
XW-2A 19 Nov 18:30:22 18:32:49 19° 71° (ENE) 18:35:17 145.665 - 145.685
HO-68 19 Nov 18:34:01 18:41:13 84° 255° (WSW) 18:48:28 435.675
STARS 19 Nov 18:49:51 18:53:43 31° 290° (WNW) 18:57:34 437.465
CUTE-I 19 Nov 18:53:14 18:57:14 21° 266° (W) 19:01:16 437.470
KAITUO 1B 19 Nov 18:56:07 18:57:13 11° 268° (W) 18:58:18 145.475/437.950
ZACube-1 19 Nov 18:56:29 19:00:10 27° 71° (ENE) 19:03:47 437.345
UWE-3 19 Nov 19:00:36 19:05:03 61° 75° (ENE) 19:09:23 435.000/436.395/437.385
CUTE 1.7 + AOD 2 19 Nov 19:01:25 19:05:20 38° 262° (W) 19:09:16 437.475
